Hereford, TX

10:20 PM CDT on March 22, 2017 (GMT -0500)
Hereford Municipal

Weather History for KHRX - March, 2013

Change the Weather History Date:

Saturday, March 23, 2013

  Actual Average (KAMA) Record (KAMA)
Temperature  
Mean Temperature 46 °F -  
Max Temperature 68 °F 62 °F 83 °F (2002)
Min Temperature 23 °F 34 °F 11 °F (1898)
Degree Days  
Heating Degree Days 19    
Moisture  
Dew Point 27 °F    
Average Humidity 60    
Maximum Humidity 87    
Minimum Humidity 4    
Precipitation  
Precipitation 0.00 in - - ()
Sea Level Pressure  
Sea Level Pressure 29.78 in    
Wind  
Wind Speed 16 mph (NW)    
Max Wind Speed 47 mph    
Max Gust Speed 60 mph    
Visibility 9 miles    
Events      
Averages and records for this station are not official NWS values.
T = Trace of Precipitation, MM = Missing Value Source: NWS Daily Summary

Daily Weather History Graph

Daily Weather History Graph

Search for Another Location

Airport or City:

Trip Planner

Search our weather history database for the weather conditions in past years. The results will help you decide how hot, cold, wet, or windy it might be!

Date:

Astronomy

Mar. 23, 2013 Rise Set
Actual Time 7:48 AM CDT 8:03 PM CDT
Civil Twilight 7:23 AM CDT 8:28 PM CDT
Nautical Twilight 6:53 AM CDT 8:58 PM CDT
Astronomical Twilight 6:23 AM CDT 9:28 PM CDT
Moon 4:39 PM CDT 5:17 AM CDT
Length of Visible Light 13h 05m
Length of Day
12h 15m
Waxing Gibbous, 85% of the Moon is Illuminated
Mar 23
Waxing Gibbous
Mar 27
Full
Apr 2
Last Quarter
Apr 10
New
Apr 18
First Quarter

Hourly Weather History & Observations

Time (CDT) Temp. Windchill Dew Point Humidity Pressure Visibility Wind Dir Wind Speed Gust Speed Precip Events Conditions
12:15 AM 48.4 °F - 35.4 °F 61% 29.76 in 10.0 mi SE 13.8 mph 17.3 mph N/A   Mostly Cloudy
12:35 AM 46.8 °F - 34.7 °F 63% 29.76 in 10.0 mi SE 13.8 mph - N/A   Mostly Cloudy
12:55 AM 45.7 °F 39.5 °F 34.3 °F 65% 29.75 in 10.0 mi SSE 13.8 mph 19.6 mph N/A   Scattered Clouds
1:15 AM 45.3 °F 38.7 °F 34.2 °F 65% 29.75 in 10.0 mi South 15.0 mph 20.7 mph N/A   Scattered Clouds
1:35 AM 44.6 °F 40.2 °F 34.0 °F 66% 29.75 in 10.0 mi SSE 8.1 mph - N/A   Mostly Cloudy
1:55 AM 43.5 °F 37.9 °F 33.8 °F 69% 29.75 in 10.0 mi SE 10.4 mph - N/A   Mostly Cloudy
2:15 AM 42.6 °F 35.9 °F 34.0 °F 71% 29.74 in 10.0 mi SSE 12.7 mph - N/A   Scattered Clouds
2:35 AM 41.5 °F 33.8 °F 33.8 °F 74% 29.74 in 10.0 mi South 15.0 mph 19.6 mph N/A   Clear
2:55 AM 40.6 °F 32.7 °F 33.8 °F 77% 29.73 in 10.0 mi South 15.0 mph 19.6 mph N/A   Clear
3:15 AM 40.1 °F 33.2 °F 33.8 °F 78% 29.73 in 10.0 mi South 11.5 mph 17.3 mph N/A   Clear
3:35 AM 39.4 °F 31.4 °F 33.8 °F 80% 29.73 in 10.0 mi South 13.8 mph - N/A   Clear
3:55 AM 39.2 °F 31.6 °F 33.8 °F 81% 29.72 in 10.0 mi SSW 12.7 mph - N/A   Clear
4:15 AM 39.2 °F 31.6 °F 34.0 °F 82% 29.72 in 10.0 mi SSW 12.7 mph 18.4 mph N/A   Clear
4:35 AM 39.2 °F 31.6 °F 34.0 °F 82% 29.72 in 10.0 mi SW 12.7 mph - N/A   Clear
4:55 AM 38.7 °F 31.8 °F 34.2 °F 84% 29.71 in 10.0 mi SSW 10.4 mph - N/A   Clear
5:15 AM 38.7 °F 31.4 °F 34.2 °F 84% 29.70 in 10.0 mi SSW 11.5 mph 18.4 mph N/A   Clear
5:35 AM 38.5 °F 32.1 °F 34.2 °F 84% 29.71 in 10.0 mi SSW 9.2 mph - N/A   Clear
5:55 AM 38.3 °F 31.9 °F 34.2 °F 85% 29.72 in 10.0 mi SW 9.2 mph 18.4 mph N/A   Clear
6:15 AM 37.9 °F 30.9 °F 34.0 °F 86% 29.71 in 10.0 mi SSW 10.4 mph - N/A   Clear
6:35 AM 37.8 °F 30.2 °F 34.0 °F 86% 29.71 in 10.0 mi SSW 11.5 mph - N/A   Clear
6:55 AM 37.6 °F 31.0 °F 34.0 °F 87% 29.72 in 10.0 mi SW 9.2 mph - N/A   Clear
7:15 AM 38.3 °F 31.4 °F 34.3 °F 86% 29.71 in 10.0 mi SW 10.4 mph - N/A   Clear
7:35 AM 38.1 °F 31.7 °F 34.2 °F 86% 29.71 in 10.0 mi SSW 9.2 mph - N/A   Clear
7:55 AM 37.9 °F 30.9 °F 34.2 °F 86% 29.72 in 10.0 mi SW 10.4 mph 18.4 mph N/A   Clear
8:15 AM 38.5 °F 31.6 °F 34.7 °F 86% 29.73 in 10.0 mi WSW 10.4 mph - N/A   Clear
8:35 AM 39.6 °F 30.3 °F 35.2 °F 85% 29.74 in 10.0 mi WSW 18.4 mph 23.0 mph N/A   Scattered Clouds
8:55 AM 43.0 °F 36.0 °F 36.9 °F 79% 29.75 in 10.0 mi West 13.8 mph - N/A   Clear
9:15 AM 43.7 °F 37.3 °F 35.6 °F 73% 29.77 in 10.0 mi NNW 12.7 mph 21.9 mph N/A   Clear
9:35 AM 43.7 °F 36.6 °F 33.6 °F 68% 29.77 in 10.0 mi NNW 15.0 mph - N/A   Clear
9:55 AM 45.0 °F 37.9 °F 33.3 °F 64% 29.77 in 10.0 mi North 16.1 mph - N/A   Clear
10:15 AM 45.5 °F 38.6 °F 34.0 °F 64% 29.77 in 10.0 mi North 16.1 mph - N/A   Clear
10:35 AM 46.8 °F - 34.2 °F 62% 29.77 in 10.0 mi NNE 15.0 mph 20.7 mph N/A   Clear
10:55 AM 48.2 °F - 34.2 °F 58% 29.77 in 10.0 mi North 13.8 mph - N/A   Clear
11:15 AM 49.1 °F - 33.8 °F 56% 29.77 in 10.0 mi NNE 10.4 mph 19.6 mph N/A   Clear
11:35 AM 49.5 °F - 33.4 °F 54% 29.77 in 10.0 mi NE 6.9 mph - N/A   Clear
11:55 AM 50.7 °F - 33.8 °F 52% 29.76 in 10.0 mi NNE 4.6 mph - N/A   Clear
12:15 PM 51.6 °F - 33.8 °F 51% 29.75 in 10.0 mi East 4.6 mph - N/A   Clear
12:35 PM 52.5 °F - 33.3 °F 48% 29.75 in 10.0 mi NE 3.5 mph - N/A   Clear
12:55 PM 54.9 °F - 33.4 °F 44% 29.74 in 10.0 mi Calm Calm - N/A   Clear
1:15 PM 55.9 °F - 31.3 °F 39% 29.72 in 10.0 mi Calm Calm - N/A   Clear
1:35 PM 57.0 °F - 30.4 °F 36% 29.71 in 10.0 mi Calm Calm - N/A   Clear
1:55 PM 58.6 °F - 29.1 °F 33% 29.69 in 10.0 mi North 3.5 mph - N/A   Clear
2:15 PM 60.4 °F - 27.7 °F 29% 29.67 in 10.0 mi Calm Calm - N/A   Clear
2:35 PM 61.9 °F - 24.8 °F 24% 29.63 in 10.0 mi West 3.5 mph - N/A   Clear
2:55 PM 64.2 °F - 23.0 °F 21% 29.61 in 10.0 mi SSW 10.4 mph 19.6 mph N/A   Scattered Clouds
3:15 PM 68.5 °F - -0.2 °F 7% 29.60 in 5.0 mi West 31.1 mph 43.7 mph N/A   Haze
3:35 PM 68.0 °F - -8.7 °F 4% 29.60 in 2.5 mi West 47.2 mph 59.8 mph N/A   Haze
3:55 PM 67.5 °F - -8.3 °F 5% 29.60 in 2.0 mi West 46.0 mph 55.2 mph N/A   Haze
4:15 PM 67.1 °F - -6.7 °F 5% 29.60 in 5.0 mi West 36.8 mph 50.6 mph N/A   Haze
4:35 PM 66.7 °F - -6.2 °F 5% 29.60 in 2.0 mi West 42.6 mph 58.7 mph N/A   Haze
4:55 PM 65.7 °F - -1.7 °F 7% 29.62 in 1.2 mi NW 35.7 mph 55.2 mph N/A   Haze
5:15 PM 59.7 °F - 2.1 °F 10% 29.64 in 2.0 mi NW 44.9 mph 56.4 mph N/A   Haze
5:35 PM 50.5 °F - 23.5 °F 35% 29.67 in 4.0 mi NNW 41.4 mph 52.9 mph N/A   Haze
5:55 PM 46.2 °F 35.3 °F 30.2 °F 54% 29.72 in 3.0 mi North 42.6 mph 51.8 mph N/A   Haze
6:15 PM 45.0 °F 34.3 °F 31.1 °F 58% 29.76 in 7.0 mi North 36.8 mph 44.9 mph N/A   Overcast
6:35 PM 40.6 °F 29.0 °F 30.4 °F 67% 29.79 in 10.0 mi North 32.2 mph 43.7 mph N/A   Mostly Cloudy
6:55 PM 39.4 °F 27.3 °F 27.7 °F 63% 29.83 in 10.0 mi North 32.2 mph 42.6 mph N/A   Mostly Cloudy
7:15 PM 38.7 °F 26.7 °F 26.6 °F 62% 29.87 in 10.0 mi North 29.9 mph 42.6 mph N/A   Overcast
7:35 PM 36.5 °F 23.5 °F 26.8 °F 68% 29.91 in 10.0 mi North 31.1 mph 38.0 mph N/A   Overcast
7:55 PM 34.7 °F 20.3 °F 26.8 °F 73% 29.93 in 10.0 mi North 35.7 mph 40.3 mph N/A   Overcast
8:15 PM 33.1 °F 19.6 °F 24.3 °F 70% 29.96 in 10.0 mi North 27.6 mph 40.3 mph N/A   Mostly Cloudy
8:35 PM 33.1 °F 18.7 °F 23.9 °F 69% 29.98 in 10.0 mi North 32.2 mph 39.1 mph N/A   Mostly Cloudy
8:55 PM 29.8 °F 13.2 °F 21.0 °F 70% 30.01 in 10.0 mi North 38.0 mph 44.9 mph N/A   Overcast
9:15 PM 29.1 °F 14.2 °F 20.1 °F 69% 30.04 in 10.0 mi North 27.6 mph 44.9 mph N/A   Overcast
9:35 PM 28.4 °F 13.5 °F 18.9 °F 67% 30.06 in 10.0 mi North 26.5 mph 41.4 mph N/A   Overcast
9:55 PM 27.1 °F 10.8 °F 18.1 °F 69% 30.07 in 10.0 mi North 31.1 mph 35.7 mph N/A   Mostly Cloudy
10:15 PM 25.7 °F 9.3 °F 17.2 °F 70% 30.08 in 10.0 mi North 28.8 mph 34.5 mph N/A   Scattered Clouds
10:35 PM 25.5 °F 9.1 °F 15.8 °F 67% 30.08 in 10.0 mi North 28.8 mph 38.0 mph N/A   Clear
10:55 PM 25.2 °F 7.6 °F 15.4 °F 67% 30.09 in 10.0 mi North 33.4 mph 41.4 mph N/A   Clear
11:15 PM 24.8 °F 7.6 °F 14.9 °F 66% 30.08 in 10.0 mi North 31.1 mph 42.6 mph N/A   Clear
11:35 PM 24.4 °F 7.4 °F 14.9 °F 67% 30.09 in 10.0 mi North 29.9 mph 39.1 mph N/A   Clear
11:55 PM 23.9 °F 7.5 °F 14.7 °F 68% 30.11 in 10.0 mi North 26.5 mph 35.7 mph N/A   Clear